Flag for Tuvalu Weather past 2 weeks in Funafuti, Tuvalu

Now
86 °F

Scattered showers. Broken clouds.


Feels Like: 99 °F
Forecast: 83 / 89 °F
Wind: 9 mph from Southwest

Location: Funafuti

Current Time: Dec 25, 2014 at 6:40:44 PM

Latest Report: Dec 25, 2014 at 6:00 PM


Visibility: N/A

Pressure: 29.62 "Hg

Humidity: 79%

Dew point: 79 °F

Location of FunafutiLocation

Historic Weather in Funafuti — Graph

°F

Funafuti temperature yesterday

Maximum temperature yesterday: 90 °F (at 10:00 AM)
Minimum temperature yesterday: 82 °F (at 3:00 AM)
Average temperature yesterday: 86 °F

Past Weeks' High & Low Weather Summary

 TemperatureHumidityPressure
High91 °F (Dec 11, 12:00 PM)94% (Dec 17, 12:00 AM)29.89 "Hg (Dec 17, 12:00 AM)
Low77 °F (Dec 23, 1:00 AM)63% (Dec 11, 1:00 PM)29.53 "Hg (Dec 19, 10:00 AM)
Average85 °F79%29.75 "Hg
* Reported Dec 10 5:00 PM — Dec 25 5:00 PM, Funafuti, Weather by CustomWeather, © 2014

Note: Actual official high and low records may vary slightly from our data, if they occured in-between our weather recording intervals... More about our weather records

Advertising

Funafuti weather history for previous 24 hours

 ConditionsComfort  
Time TempWeatherWind HumidityBarometerVisibility
5:00 PM
Dec 25
88 °FBroken clouds.9 mph70%29.62 "HgN/A
4:00 PM88 °FScattered showers. Broken clouds.7 mph70%29.62 "HgN/A
3:00 PM90 °FPartly sunny.9 mph67%29.65 "HgN/A
2:00 PM90 °FPartly sunny.10 mph67%29.68 "HgN/A
1:00 PM90 °FPartly sunny.8 mph67%29.68 "HgN/A
12:00 PM90 °FScattered showers. Partly sunny.7 mph67%29.68 "HgN/A
11:00 AM90 °FScattered showers. Scattered clouds.5 mph67%29.71 "HgN/A
10:00 AM90 °FScattered clouds.7 mph71%29.71 "HgN/A
9:00 AM88 °FScattered clouds.6 mph70%29.68 "HgN/A
8:00 AM86 °FScattered clouds.7 mph75%29.71 "HgN/A
7:00 AM86 °FBroken clouds.8 mph79%29.68 "HgN/A
6:00 AM82 °FBroken clouds.9 mph84%29.68 "HgN/A
5:00 AM82 °FScattered showers. Partly cloudy.12 mph84%29.65 "HgN/A
4:00 AM82 °FScattered showers. Partly cloudy.12 mph84%29.65 "HgN/A
3:00 AM84 °FScattered showers. Partly cloudy.13 mph79%29.65 "HgN/A
2:00 AM84 °FPassing clouds.16 mph79%29.65 "HgN/A
1:00 AM84 °FPartly cloudy.15 mph79%29.71 "HgN/A
12:00 AM84 °FPartly cloudy.14 mph79%29.68 "HgN/A
11:00 PM
Dec 24
84 °FPassing clouds.9 mph79%29.71 "HgN/A
10:00 PM86 °FPassing clouds.10 mph75%29.71 "HgN/A
9:00 PM86 °FPassing clouds.12 mph75%29.68 "HgN/A
8:00 PM86 °FPassing clouds.15 mph75%29.68 "HgN/A
7:00 PM86 °FPassing clouds.15 mph75%29.68 "HgN/A
6:00 PM86 °FScattered clouds.12 mph75%29.65 "HgN/A
Weather by CustomWeather, © 2014

See weather overviewHow to use our weather pages